DW7857 Weather Reports


time (UTC)temp
C
wind
direction
speed
KPH
gust
KPH
rain 1hr
cm
rain 24hr
cm
rain mn
cm
humidity
%
barometer
mb
20180223222012 0 69 4.8 6.4 0.00 0.00 0.00 62 1005.4
20180223221012 0 97 4.8 6.4 0.00 0.00 0.00 63 1005.3
20180223220013 0 64 6.4 9.7 0.00 0.00 0.00 64 1005.3
20180223215012 0 61 6.4 12.9 0.00 0.00 0.00 64 1005.4
20180223214012 0 75 3.2 4.8 0.00 0.00 0.00 63 1005.2
20180223213013 0 74 3.2 8.0 0.00 0.00 0.00 63 1005.3
20180223212012 0 69 3.2 4.8 0.00 0.00 0.00 62 1005.1
20180223211012 0 63 3.2 4.8 0.00 0.00 0.00 61 1005.0
20180223210012 0 58 1.6 3.2 0.00 0.00 0.00 61 1005.0
20180223205012 0 76 4.8 8.0 0.00 0.00 0.00 61 1005.1
20180223204012 0 50 6.4 8.0 0.00 0.00 0.00 61 1005.1
20180223203012 0 59 4.8 8.0 0.00 0.00 0.00 60 1005.1
20180223202012 1 66 4.8 8.0 0.00 0.00 0.00 60 1004.9
20180223201012 1 44 3.2 4.8 0.00 0.00 0.00 59 1005.1
20180223200013 1 64 4.8 6.4 0.00 0.00 0.00 58 1004.8
20180223195012 1 69 6.4 8.0 0.00 0.00 0.00 58 1004.9
20180223194012 1 71 4.8 6.4 0.00 0.00 0.00 57 1004.9
20180223193012 1 71 8.0 12.9 0.00 0.00 0.00 57 1004.9
20180223192012 2 69 9.7 12.9 0.00 0.00 0.00 57 1004.7
20180223191012 2 78 6.4 8.0 0.00 0.00 0.00 56 1004.8
20180223190012 2 70 6.4 11.3 0.00 0.00 0.00 55 1004.6
20180223185012 2 78 8.0 12.9 0.00 0.00 0.00 55 1004.7
20180223184012 2 43 8.0 12.9 0.00 0.00 0.00 55 1004.6
20180223183012 2 66 8.0 12.9 0.00 0.00 0.00 55 1004.5
20180223182012 2 68 11.3 16.1 0.00 0.00 0.00 55 1004.8
20180223181012 2 66 6.4 9.7 0.00 0.00 0.00 54 1004.6
20180223180012 3 93 4.8 8.0 0.00 0.00 0.00 53 1004.4
20180223175012 3 103 3.2 3.2 0.00 0.00 0.00 52 1004.3
20180223174015 3 73 3.2 6.4 0.00 0.00 0.00 51 1004.3
20180223173015 3 117 6.4 11.3 0.00 0.00 0.00 51 1004.3
20180223172011 4 85 3.2 6.4 0.00 0.00 0.00 50 1004.5
20180223171010 4 100 4.8 6.4 0.00 0.00 0.00 50 1004.4
20180223170010 5 53 6.4 11.3 0.00 0.00 0.00 48 1004.5
20180223165010 5 73 9.7 11.3 0.00 0.00 0.00 45 1004.4
20180223164010 6 48 3.2 4.8 0.00 0.00 0.00 47 1004.3
20180223163010 0 0 0.0 0.0 0.00 0.00 0.00 77 1004.3
20180223162010 0 0 0.0 0.0 0.00 0.00 0.00 77 1004.4
20180223161010 0 0 0.0 0.0 0.00 0.00 0.00 77 1004.6
20180223160010 0 0 0.0 0.0 0.00 0.00 0.00 77 1004.5
20180223155010 0 0 0.0 0.0 0.00 0.00 0.00 77 1004.9
20180223154011 0 0 0.0 0.0 0.00 0.00 0.00 77 1004.6
20180223153010 0 0 0.0 0.0 0.00 0.00 0.00 77 1004.8
20180223152010 0 0 0.0 0.0 0.00 0.00 0.00 77 1004.9
20180223151010 0 0 0.0 0.0 0.00 0.00 0.00 77 1005.4
20180223150010 0 0 0.0 0.0 0.00 0.00 0.00 77 1005.3
20180223145010 0 0 0.0 0.0 0.00 0.00 0.00 77 1005.4
20180223144010 0 0 0.0 0.0 0.00 0.00 0.00 77 1005.5
20180223143010 0 0 0.0 0.0 0.00 0.00 0.00 77 1005.6
20180223142010 0 0 0.0 0.0 0.00 0.00 0.00 77 1005.6
20180223141010 0 0 0.0 0.0 0.00 0.00 0.00 77 1005.8
20180223140010 0 0 0.0 0.0 0.00 0.00 0.00 77 1005.8
20180223135010 0 0 0.0 0.0 0.00 0.00 0.00 77 1006.0
20180223134010 0 0 0.0 0.0 0.00 0.00 0.00 77 1006.0
20180223133010 0 0 0.0 0.0 0.00 0.00 0.00 77 1006.0
20180223132010 0 0 0.0 0.0 0.00 0.00 0.00 77 1006.1
20180223131010 0 0 0.0 0.0 0.00 0.00 0.00 77 1006.5
20180223130010 0 0 0.0 0.0 0.00 0.00 0.00 77 1006.4
20180223125010 0 0 0.0 0.0 0.00 0.00 0.00 77 1006.7
20180223124010 0 0 0.0 0.0 0.00 0.00 0.00 77 1006.4
20180223123010 0 0 0.0 0.0 0.00 0.00 0.00 77 1006.8
20180223122010 0 0 0.0 0.0 0.00 0.00 0.00 77 1007.0
20180223121010 0 0 0.0 0.0 0.00 0.00 0.00 77 1007.2
20180223120010 0 0 0.0 0.0 0.00 0.00 0.00 77 1007.0
20180223115010 0 0 0.0 0.0 0.00 0.00 0.00 77 1007.3
20180223114010 0 0 0.0 0.0 0.00 0.00 0.00 77 1007.2
20180223113010 0 0 0.0 0.0 0.00 0.00 0.00 77 1007.4
20180223112010 0 0 0.0 0.0 0.00 0.00 0.00 77 1007.3
20180223111010 0 0 0.0 0.0 0.00 0.00 0.00 77 1007.4
20180223110011 0 0 0.0 0.0 0.00 0.00 0.00 77 1007.6
20180223105011 0 0 0.0 0.0 0.00 0.00 0.00 77 1007.6
20180223104010 0 0 0.0 0.0 0.00 0.00 0.00 77 1007.7
20180223103011 0 0 0.0 0.0 0.00 0.00 0.00 77 1007.6
20180223102011 0 0 0.0 0.0 0.00 0.00 0.00 77 1008.0
20180223101010 0 0 0.0 0.0 0.00 0.00 0.00 77 1007.8
20180223100011 0 0 0.0 0.0 0.00 0.00 0.00 77 1007.9
20180223095011 0 0 0.0 0.0 0.00 0.00 0.00 77 1008.0
20180223094011 0 0 0.0 0.0 0.00 0.00 0.00 77 1008.0
20180223093011 0 0 0.0 0.0 0.00 0.00 0.00 77 1008.0
20180223092011 0 0 0.0 0.0 0.00 0.00 0.00 77 1007.9
20180223091011 0 0 0.0 0.0 0.00 0.00 0.00 77 1008.3
20180223090010 0 0 0.0 0.0 0.00 0.00 0.00 76 1008.2
20180223085010 -2 0 0.0 0.0 0.00 0.00 0.00 73 1007.9
20180223084011 -2 0 0.0 0.0 0.00 0.00 0.00 73 1007.9
20180223083011 -2 0 0.0 0.0 0.00 0.00 0.00 73 1008.1
20180223082011 -2 0 0.0 0.0 0.00 0.00 0.00 73 1008.0
20180223081011 -2 0 0.0 0.0 0.00 0.00 0.00 73 1008.1
20180223080011 -2 0 0.0 0.0 0.00 0.00 0.00 73 1008.0
20180223075011 -2 74 1.6 4.8 0.00 0.00 0.00 73 1008.1
20180223074011 -2 90 0.0 4.8 0.00 0.00 0.00 73 1007.8
20180223073011 -2 330 1.6 3.2 0.00 0.00 0.00 73 1007.9
20180223072011 -2 314 0.0 3.2 0.00 0.00 0.00 73 1008.1
20180223071011 -2 314 0.0 3.2 0.00 0.00 0.00 73 1007.9
20180223070011 -2 23 1.6 3.2 0.00 0.00 0.00 73 1007.9
20180223065011 -1 92 4.8 6.4 0.00 0.00 0.00 73 1007.7
20180223064011 -1 59 6.4 8.0 0.00 0.00 0.00 73 1007.7
20180223063011 -1 62 8.0 11.3 0.00 0.00 0.00 73 1007.8
20180223062011 -1 60 8.0 11.3 0.00 0.00 0.00 73 1007.7
20180223061011 -1 62 9.7 11.3 0.00 0.00 0.00 73 1007.9
20180223060011 -1 62 9.7 12.9 0.00 0.00 0.00 73 1007.7
20180223055011 -1 51 9.7 11.3 0.00 0.00 0.00 73 1007.7
20180223054011 -1 46 8.0 11.3 0.00 0.00 0.00 73 1007.9
20180223053011 -1 69 4.8 8.0 0.00 0.00 0.00 72 1007.6
20180223052011 -1 0 0.0 0.0 0.00 0.00 0.00 72 1007.8
20180223051011 -1 0 0.0 0.0 0.00 0.00 0.00 72 1007.5
20180223050011 -1 0 0.0 0.0 0.00 0.00 0.00 72 1007.6
20180223045011 -1 0 0.0 0.0 0.00 0.00 0.00 72 1007.8
20180223044011 -1 0 0.0 0.0 0.00 0.00 0.00 73 1007.7
20180223043011 -1 0 0.0 0.0 0.00 0.00 0.00 73 1007.7
20180223042011 -1 0 0.0 0.0 0.00 0.00 0.00 73 1007.6
20180223041011 -1 0 0.0 0.0 0.00 0.00 0.00 74 1007.6
20180223040011 -1 0 0.0 0.0 0.00 0.00 0.00 74 1007.5
20180223035011 -1 0 0.0 0.0 0.00 0.00 0.00 74 1007.9
20180223034011 -2 0 0.0 0.0 0.00 0.00 0.00 74 1007.7
20180223033011 -2 0 0.0 0.0 0.00 0.00 0.00 74 1008.0
20180223032011 -2 0 0.0 0.0 0.00 0.00 0.00 74 1007.9
20180223031011 -2 0 0.0 0.0 0.00 0.00 0.00 74 1008.0
20180223030011 -2 0 0.0 0.0 0.00 0.00 0.00 74 1008.3
20180223025011 -2 0 0.0 0.0 0.00 0.00 0.00 74 1008.2
20180223024011 -2 0 0.0 0.0 0.00 0.00 0.00 74 1008.2
20180223023011 -2 0 0.0 0.0 0.00 0.00 0.00 74 1008.3
20180223022017 -2 0 0.0 0.0 0.00 0.00 0.00 74 1008.6
20180223021016 -2 0 0.0 0.0 0.00 0.00 0.00 74 1008.3
20180223020017 -2 0 0.0 0.0 0.00 0.00 0.00 73 1008.4
20180223015017 -2 0 0.0 0.0 0.00 0.00 0.00 74 1008.5
20180223014016 -2 0 0.0 0.0 0.00 0.00 0.00 74 1008.6
20180223013017 -2 0 0.0 0.0 0.00 0.00 0.00 74 1008.6
20180223012017 -2 0 0.0 0.0 0.00 0.00 0.00 73 1008.8
20180223011017 -2 96 1.6 6.4 0.00 0.00 0.00 73 1008.8
20180223010016 -2 45 0.0 3.2 0.00 0.00 0.00 73 1008.7
20180223005017 -2 46 0.0 1.6 0.00 0.00 0.00 73 1008.9
20180223004017 -2 121 1.6 3.2 0.00 0.00 0.00 72 1008.8
20180223003017 -2 0 0.0 0.0 0.00 0.00 0.00 72 1008.8
20180223002016 -2 0 0.0 0.0 0.00 0.00 0.00 72 1008.9
20180223001016 -2 0 0.0 0.0 0.00 0.00 0.00 72 1008.9
20180223000019 -1 0 0.0 0.0 0.00 0.00 0.00 72 1009.0
20180222235017 -1 0 0.0 0.0 0.00 0.00 0.00 72 1008.9
20180222234017 -1 0 0.0 0.0 0.00 0.00 0.00 73 1008.9
20180222233017 -1 0 0.0 0.0 0.00 0.00 0.00 72 1008.8
20180222232017 -1 58 1.6 3.2 0.00 0.00 0.00 72 1009.1
20180222231017 -1 28 1.6 3.2 0.00 0.00 0.00 72 1009.2
20180222230017 -1 225 0.0 3.2 0.00 0.00 0.00 72 1009.1
20180222225017 -1 0 0.0 0.0 0.00 0.00 0.00 72 1009.1
20180222224017 -1 0 0.0 0.0 0.00 0.00 0.00 72 1009.4
20180222223017 -1 0 0.0 0.0 0.00 0.00 0.00 72 1009.2